When you browse on this site, cookies collect data to enhance your experience and personalize the content and advertising you see.
Visit our Privacy Policy to learn more. By continuing to use the site, you agree to this use of cookies and data.
  • In Hungary
  • List of Countries
  • For 7 days
  • Water Temperature
  • Weather Map
  • News
  • Weather Widgets
  • user-avatar
    Login

    Hourly Weather Topalki

    Today, 20 January, Monday

    Time Temperature Precipitation Wind Pressure Humidity
    00:00 0°C° 0 mm 5 mps 751 mmHg 88%
    01:00 0°C° 0 mm 5 mps 751 mmHg 86%
    02:00 0°C° 0 mm 5 mps 752 mmHg 85%
    03:00 0°C° 0.1 mm 5 mps 751 mmHg 88%
    04:00 -1°C° 0.1 mm 5 mps 751 mmHg 92%
    05:00 -1°C° 0.1 mm 5 mps 751 mmHg 95%
    06:00 -1°C° 0.1 mm 4 mps 752 mmHg 95%
    07:00 -1°C° 0.1 mm 4 mps 752 mmHg 94%
    08:00 0°C° 0.1 mm 3 mps 752 mmHg 94%
    09:00 -1°C° 0.1 mm 4 mps 752 mmHg 94%
    10:00 -1°C° 0.1 mm 4 mps 752 mmHg 94%
    11:00 -1°C° 0.1 mm 4 mps 752 mmHg 94%
    12:00 -1°C° 0.1 mm 4 mps 752 mmHg 93%
    13:00 -1°C° 0.1 mm 4 mps 752 mmHg 93%
    14:00 -1°C° 0.1 mm 4 mps 752 mmHg 92%
    15:00 -1°C° 0 mm 4 mps 751 mmHg 92%
    16:00 -1°C° 0 mm 4 mps 751 mmHg 92%
    17:00 0°C° 0 mm 4 mps 750 mmHg 92%
    18:00 0°C° 0 mm 4 mps 750 mmHg 89%
    19:00 0°C° 0 mm 5 mps 750 mmHg 86%
    20:00 0°C° 0 mm 5 mps 749 mmHg 84%
    21:00 -1°C° 0 mm 5 mps 749 mmHg 84%
    22:00 -1°C° 0 mm 4 mps 748 mmHg 84%
    23:00 -2°C° 0 mm 4 mps 747 mmHg 84%

    Tomorrow, 21 January, Tuesday

    Time Temperature Precipitation Wind Pressure Humidity
    00:00 -2°C° 0 mm 4 mps 747 mmHg 85%
    01:00 -2°C° 0 mm 4 mps 746 mmHg 86%
    02:00 -2°C° 0 mm 4 mps 745 mmHg 87%
    03:00 -1°C° 0.6 mm 5 mps 744 mmHg 88%
    04:00 -1°C° 0.6 mm 5 mps 743 mmHg 90%
    05:00 -1°C° 0.6 mm 6 mps 741 mmHg 91%
    06:00 -1°C° 0.4 mm 6 mps 741 mmHg 90%
    07:00 +1°C° 0.4 mm 6 mps 740 mmHg 89%
    08:00 +2°C° 0.4 mm 6 mps 739 mmHg 88%
    09:00 +2°C° 0 mm 6 mps 739 mmHg 87%
    10:00 +3°C° 0 mm 6 mps 738 mmHg 86%
    11:00 +3°C° 0 mm 6 mps 737 mmHg 84%
    12:00 +3°C° 0.1 mm 6 mps 737 mmHg 83%
    13:00 +3°C° 0.1 mm 5 mps 737 mmHg 82%
    14:00 +3°C° 0.1 mm 5 mps 737 mmHg 81%
    15:00 +3°C° 0.2 mm 5 mps 736 mmHg 84%
    16:00 +3°C° 0.2 mm 4 mps 736 mmHg 87%
    17:00 +3°C° 0.2 mm 4 mps 735 mmHg 90%
    18:00 +1°C° 0.1 mm 4 mps 735 mmHg 88%
    19:00 +1°C° 0.1 mm 5 mps 735 mmHg 87%
    20:00 0°C° 0.1 mm 5 mps 735 mmHg 85%
    21:00 0°C° 0.1 mm 5 mps 735 mmHg 83%
    22:00 -2°C° 0.1 mm 6 mps 735 mmHg 82%
    23:00 -3°C° 0.1 mm 6 mps 735 mmHg 80%

    Day after tomorrow, 22 January, Wednesday

    Time Temperature Precipitation Wind Pressure Humidity
    00:00 -3°C° 0 mm 6 mps 735 mmHg 79%
    01:00 -4°C° 0 mm 5 mps 735 mmHg 78%
    02:00 -4°C° 0 mm 5 mps 735 mmHg 77%
    03:00 -4°C° 0 mm 5 mps 734 mmHg 79%
    04:00 -4°C° 0 mm 5 mps 733 mmHg 81%
    05:00 -4°C° 0 mm 5 mps 732 mmHg 83%
    06:00 -4°C° 0.2 mm 5 mps 732 mmHg 83%
    07:00 -4°C° 0.2 mm 6 mps 732 mmHg 82%
    08:00 -4°C° 0.2 mm 6 mps 731 mmHg 81%
    09:00 -4°C° 0.1 mm 6 mps 731 mmHg 77%
    10:00 -4°C° 0.1 mm 6 mps 731 mmHg 73%
    11:00 -4°C° 0.1 mm 6 mps 731 mmHg 69%
    12:00 -4°C° 0 mm 5 mps 731 mmHg 69%
    13:00 -4°C° 0 mm 5 mps 731 mmHg 68%
    14:00 -4°C° 0 mm 5 mps 731 mmHg 68%
    15:00 -4°C° 0 mm 5 mps 731 mmHg 70%
    16:00 -5°C° 0 mm 5 mps 731 mmHg 72%
    17:00 -5°C° 0 mm 6 mps 731 mmHg 75%
    18:00 -5°C° 0.1 mm 6 mps 732 mmHg 75%
    19:00 -6°C° 0.1 mm 6 mps 732 mmHg 75%
    20:00 -6°C° 0.1 mm 6 mps 733 mmHg 75%
    21:00 -8°C° 0 mm 6 mps 734 mmHg 75%
    22:00 -8°C° 0 mm 6 mps 734 mmHg 75%
    23:00 -9°C° 0 mm 6 mps 735 mmHg 75%

    23 January, Thursday

    Time Temperature Precipitation Wind Pressure Humidity
    00:00 -9°C° 0 mm 6 mps 735 mmHg 73%
    01:00 -9°C° 0 mm 6 mps 736 mmHg 71%
    02:00 -10°C° 0 mm 6 mps 737 mmHg 69%
    03:00 -10°C° 0 mm 6 mps 737 mmHg 69%
    04:00 -10°C° 0 mm 6 mps 738 mmHg 69%
    05:00 -10°C° 0 mm 6 mps 738 mmHg 68%
    06:00 -11°C° 0 mm 6 mps 739 mmHg 67%
    07:00 -11°C° 0 mm 6 mps 740 mmHg 66%
    08:00 -11°C° 0 mm 6 mps 740 mmHg 65%
    09:00 -11°C° 0 mm 6 mps 741 mmHg 64%
    10:00 -11°C° 0 mm 6 mps 742 mmHg 62%
    11:00 -11°C° 0 mm 6 mps 742 mmHg 61%
    12:00 -11°C° 0 mm 5 mps 743 mmHg 61%
    13:00 -11°C° 0 mm 5 mps 743 mmHg 61%
    14:00 -11°C° 0 mm 5 mps 744 mmHg 60%
    15:00 -10°C° 0 mm 4 mps 744 mmHg 62%
    16:00 -9°C° 0 mm 3 mps 744 mmHg 64%
    17:00 -9°C° 0 mm 3 mps 745 mmHg 66%
    18:00 -8°C° 0 mm 2 mps 744 mmHg 68%
    19:00 -8°C° 0 mm 2 mps 744 mmHg 70%
    20:00 -8°C° 0 mm 2 mps 744 mmHg 72%
    21:00 -9°C° 0 mm 3 mps 744 mmHg 70%
    22:00 -8°C° 0 mm 3 mps 743 mmHg 68%
    23:00 -8°C° 0 mm 3 mps 742 mmHg 66%

    24 January, Friday

    Time Temperature Precipitation Wind Pressure Humidity
    00:00 -8°C° 0.1 mm 4 mps 741 mmHg 75%
    01:00 -8°C° 0.1 mm 4 mps 740 mmHg 84%
    02:00 -7°C° 0.1 mm 5 mps 739 mmHg 93%
    03:00 -7°C° 0.5 mm 5 mps 738 mmHg 93%
    04:00 -6°C° 0.5 mm 5 mps 737 mmHg 93%
    05:00 -5°C° 0.5 mm 5 mps 735 mmHg 94%
    06:00 -5°C° 0.3 mm 5 mps 735 mmHg 94%
    07:00 -4°C° 0.3 mm 5 mps 734 mmHg 94%
    08:00 -4°C° 0.3 mm 5 mps 733 mmHg 94%
    09:00 -2°C° 0.2 mm 5 mps 734 mmHg 89%
    10:00 -2°C° 0.2 mm 5 mps 734 mmHg 85%
    11:00 -2°C° 0.2 mm 6 mps 734 mmHg 80%
    12:00 -2°C° 0 mm 6 mps 734 mmHg 78%
    13:00 -2°C° 0 mm 6 mps 735 mmHg 76%
    14:00 -2°C° 0 mm 6 mps 735 mmHg 74%
    15:00 -2°C° 0 mm 5 mps 736 mmHg 76%
    16:00 -4°C° 0 mm 5 mps 736 mmHg 78%
    17:00 -5°C° 0 mm 5 mps 737 mmHg 79%
    18:00 -4°C° 0 mm 4 mps 737 mmHg 82%
    19:00 -4°C° 0 mm 4 mps 738 mmHg 84%
    20:00 -4°C° 0 mm 4 mps 738 mmHg 86%
    21:00 -4°C° 0 mm 3 mps 738 mmHg 88%
    22:00 -4°C° 0 mm 3 mps 739 mmHg 90%
    23:00 -4°C° 0 mm 3 mps 739 mmHg 92%

    25 January, Saturday

    Time Temperature Precipitation Wind Pressure Humidity
    00:00 -4°C° 0 mm 3 mps 739 mmHg 92%
    01:00 -3°C° 0 mm 2 mps 739 mmHg 92%
    02:00 -3°C° 0 mm 2 mps 739 mmHg 92%
    03:00 -4°C° 0 mm 2 mps 739 mmHg 93%
    04:00 -4°C° 0 mm 2 mps 738 mmHg 94%
    05:00 -5°C° 0 mm 2 mps 738 mmHg 96%
    06:00 -5°C° 0 mm 2 mps 738 mmHg 95%
    07:00 -5°C° 0 mm 2 mps 738 mmHg 95%
    08:00 -5°C° 0 mm 2 mps 737 mmHg 94%
    09:00 -4°C° 0.1 mm 2 mps 737 mmHg 94%
    10:00 -2°C° 0.1 mm 3 mps 737 mmHg 94%
    11:00 -1°C° 0.1 mm 3 mps 737 mmHg 94%
    12:00 -1°C° 0.1 mm 3 mps 737 mmHg 94%
    13:00 0°C° 0.1 mm 3 mps 737 mmHg 94%
    14:00 0°C° 0.1 mm 3 mps 737 mmHg 93%
    15:00 0°C° 0 mm 3 mps 737 mmHg 92%
    16:00 0°C° 0 mm 3 mps 738 mmHg 90%
    17:00 0°C° 0 mm 3 mps 738 mmHg 89%
    18:00 -1°C° 0 mm 3 mps 738 mmHg 90%
    19:00 -2°C° 0 mm 3 mps 738 mmHg 91%
    20:00 -2°C° 0 mm 3 mps 739 mmHg 93%
    21:00 -2°C° 0 mm 3 mps 739 mmHg 93%
    22:00 -4°C° 0 mm 3 mps 739 mmHg 93%
    23:00 -3°C° 0 mm 2 mps 740 mmHg 93%
    Show more